Regional Weather Roundup
Issued by NWS

Home | Current Version | Previous Version | Text Only | Print | Product List | Glossary Off
Versions: 1 2 3 4 5 6 7 8 9 10 11 12 13 14 15 16 17 18 19 20 21 22 23 24 25 26 27 28 29 30 31 32 33 34 35 36 37 38 39 40 41 42 43 44 45 46 47 48 49 50

000
ASUS43 KMKX 270900
RWRWI

WISCONSIN REGIONAL WEATHER ROUNDUP
NATIONAL WEATHER SERVICE MILWAUKEE/SULLIVAN WI
400 AM CDT TUE JUN 27 2017

NOTE: "FAIR" INDICATES FEW OR NO CLOUDS BELOW 12,000 FEET WITH NO
SIGNIFICANT WEATHER AND/OR OBSTRUCTIONS TO VISIBILITY.

WIZ001-002-006>008-014>016-023>028-271000-
NORTHWEST WISCONSIN

CITY           SKY/WX    TMP DP  RH WIND       PRES   REMARKS
SUPERIOR ARPT  NOT AVBL
ASHLAND        PTCLDY    50  47  89 SW8       30.02F
HAYWARD        CLEAR     47  45  93 SW3       30.06S
SIREN          CLEAR     46  44  94 CALM      30.07S
CUMBERLAND     CLEAR     48  45  87 CALM      30.08S
RICE LAKE      CLEAR     48  47  97 CALM      30.09S FOG
CHETEK         CLEAR     47  47 100 CALM      30.08S
LADYSMITH      MOCLDY    52  48  87 CALM      30.08S
EAU CLAIRE     CLEAR     50  47  89 SW6       30.07F
MENOMONIE      CLEAR     50  47  87 SW3       30.08F
NEW RICHMOND   CLEAR     49  46  92 S3        30.09F
OSCEOLA        CLEAR     47  47 100 CALM      30.11F
$$

WIZ003>005-009-010-017-018-271000-
NORTH CENTRAL WISCONSIN

CITY           SKY/WX    TMP DP  RH WIND       PRES   REMARKS
MANITOWISH WTR CLOUDY    48  48 100 CALM      30.04S
ARBOR VITAE    CLOUDY    52  49  89 CALM      30.03F
WOODRUFF       CLOUDY    52  49  89 CALM      30.03F
RHINELANDER    CLOUDY    48  48 100 W6        30.05S
EAGLE RIVER    MOCLDY    44  44 100 W3        30.03F
LAND O LAKES   PTCLDY    44  44 100 CALM      30.04S
PHILLIPS       PTCLDY    49  49  97 CALM      30.05S
TOMAHAWK       NOT AVBL
MEDFORD        CLOUDY    51  47  84 W5        30.07S
MERRILL        CLOUDY    42  42 100 CALM      30.06S
$$

WIZ029-030-035-036-043>047-271000-
CENTRAL WISCONSIN

CITY           SKY/WX    TMP DP  RH WIND       PRES   REMARKS
WAUSAU         CLOUDY    49  47  93 NW3       30.05S
MOSINEE        PTCLDY    46  45  93 W6        30.07S
MARSHFIELD     CLOUDY    51  46  83 W6        30.07S
STEVENS POINT  CLEAR     41  41 100 CALM      30.07S
WAUPACA        CLEAR     52  49  89 W6        30.06S
WAUTOMA        CLEAR     46  45  96 CALM      30.08S
WISC RAPIDS    CLOUDY    50  47  89 W3        30.09S
CAMP DOUGLAS   NOT AVBL
$$

WIZ011>013-019>022-031-037>040-048>050-271000-
NORTHEAST WISCONSIN

CITY           SKY/WX    TMP DP  RH WIND       PRES   REMARKS
ANTIGO         CLEAR     41  41 100 CALM      30.05F
SHAWANO        CLEAR     50  47  88 W3        30.04S
OCONTO         CLEAR     47  46  97 W5        30.02S
STURGEON BAY     N/A     50  49  96 W3          N/A
GREEN BAY      CLEAR     49  49 100 W6        30.04S
MANITOWOC      CLEAR     53  48  83 W5        30.04S
APPLETON       CLEAR     46  46 100 W10       30.04S
CLINTONVILLE   CLEAR     50  45  81 W7        30.05S
OSHKOSH        CLEAR     51  46  83 W6        30.05F
$$

WIZ032>034-041-042-053>061-271000-
SOUTHWEST WISCONSIN

CITY           SKY/WX    TMP DP  RH WIND       PRES   REMARKS
LA CROSSE      CLEAR     56  50  80 S6        30.10S
SPARTA         CLEAR     40  40 100 CALM      30.11S
VIROQUA        CLEAR     50  47  88 SW6       30.11S
BOSCOBEL       PTCLDY    47  45  93 SW5       30.12S
PRAIRIE DU CHI CLEAR     47  45  91 CALM      30.12S
PLATTEVILLE    PTCLDY    49  47  93 SW5       30.13R
$$

WIZ056-057-062-063-064-067-068-271000-
SOUTH CENTRAL WISCONSIN

CITY           SKY/WX    TMP DP  RH WIND       PRES   REMARKS
REEDSBURG      CLEAR     47  47 100 CALM      30.09S
BARABOO/DELLS  CLEAR     46  45  93 CALM      30.09S
LONE ROCK      PTCLDY    46  44  93 CALM      30.11S
MINERAL POINT  CLEAR     52  46  82 W3        30.12R
MADISON        CLEAR     50  45  83 CALM      30.09S
MIDDLETON      CLEAR     47  45  91 CALM      30.10S
WATERTOWN      NOT AVBL
MONROE         CLEAR     52  45  76 W10       30.11S
JANESVILLE     CLEAR     50  50 100 CALM      30.10S
$$

WIZ051-052-058>065-066-070>072-271000-
SOUTHEAST WISCONSIN

CITY           SKY/WX    TMP DP  RH WIND       PRES   REMARKS
MILWAUKEE      CLEAR     55  47  74 W6        30.08S
WAUKESHA       CLEAR     46  43  87 SW3       30.10R
MILWAUKEE/TIMM CLEAR     46  43  87 SW5       30.08S
RACINE         CLEAR     52  46  80 W5        30.10S
KENOSHA        PTCLDY    47  44  90 W6        30.09S
FOND DU LAC    CLEAR     51  45  79 SW7       30.07S
SHEBOYGAN      CLEAR     49  47  93 W6        30.05S
WEST BEND      CLEAR     48  46  93 W3        30.07S
JUNEAU         CLEAR     46  45  95 CALM      30.09S
$$

LSZ147-162-271000-
LAKE SUPERIOR

STATION/POSITION TIME  TEMP    WIND        PRES    WAVE
                       AIR SEA DIR/SP/G            HT/PER
                 (UTC) (F)     (DEG/KT/KT) (MB)    (FT/S)
W MID LAKE BUOY  0750   44 39  270/  8/  8 1016.0S   1
DEVILS ISLAND    0800   54     230/ 10/ 10 1016.2F
SAXON HARBOR     0830   58     200/  7/ 10 1015.9S
$$

LMZ867-665-643>646-271000-
LAKE MICHIGAN

STATION/POSITION TIME  TEMP    WIND        PRES    WAVE
                       AIR SEA DIR/SP/G            HT/PER
                 (UTC) (F)     (DEG/KT/KT) (MB)    (FT/S)
CHAMBERS ISLAND  0840   55     260/  3/  7 1015.9R
S GREEN BAY BUOY 0830   56     280/ 14/ 16 1016.3S
N MID LAKE BUOY  0750   56 54  240/  8/  8 1016.4R   1
NORTHPORT PIER   0840   54     270/  4/  6 1015.6F
KEWAUNEE LAKESHO 0830   51     300/  4/  6 1016.3F
SHEBOYGAN LAKESH 0800   53     250/ 10/ 11 1017.4F
PORT WASHINGTON  0840   54     270/  5/  8 1018.6S
ATWATER BUOY     0709   57 58  240/  8/  8 1018.5S
MILWAUKEE LAKESH 0830   57     270/  5/  5   N/A
S MID LAKE BUOY  0750   58 61  320/ 10/ 10 1018.4F   2/ 5
KENOSHA   LAKESH 0800   56     270/  6/  9 1018.6
$$

TC  - TEMPERATURE IN CELSIUS
VSB - VISIBILITY IN STATUTE MILES
WCI - WIND CHILL INDEX
HX  - HEAT INDEX





USA.gov is the U.S. government's official web portal to all federal, state and local government web resources and services.